Wind_Speed
13 14 12 13 18 14 13 11 9 8 7 7 5 3 5 6 7 4 6 10 9 5 7 9 9 8 9 9 11 11 10 11 11 8 8 8 7 6 5 4 4 5 7 8 8 8 8 8 8
14 15 13 14 16 13 14 11 10 9 7 5 5 4 3 5 6 5 4 8 9 5 5 7 8 8 8 8 8 9 9 10 10 8 6 6 6 4 3 2 2 2 4 6 6 6 6 8 7
10 14 10 16 15 18 16 12 8 8 8 6 5 3 2 3 4 4 5 5 8 7 5 6 6 6 6 7 6 8 8 8 8 9 8 5 5 3 3 2 2 2 3 2 2 3 5 5 7
8 8 19 12 16 18 17 15 13 12 9 5 5 3 3 2 3 4 4 3 5 6 4 5 6 5 4 5 5 6 7 6 7 9 8 6 5 5 4 3 3 3 3 3 2 1 3 3 3
10 19 11 13 13 15 15 14 15 15 14 11 6 3 2 1 3 5 5 2 2 3 3 3 5 5 3 4 4 5 5 5 6 8 8 8 7 6 5 4 3 4 4 3 3 3 1 1 1
16 20 10 9 11 13 13 12 12 12 12 12 11 6 2 2 2 3 4 4 4 4 2 0 2 3 2 3 2 4 4 4 5 5 6 8 8 7 5 5 5 4 4 4 3 2 1 1 2
17 13 8 10 9 11 11 12 10 11 11 10 11 9 5 4 4 4 3 3 4 5 5 4 3 2 1 3 3 5 3 1 2 4 5 5 6 7 5 3 4 5 4 4 3 3 2 1 0
15 17 8 10 7 9 10 12 9 9 8 8 8 7 6 4 4 4 5 4 4 5 7 6 6 5 3 2 5 4 3 3 4 6 7 5 7 6 5 6 7 5 4 5 3 2 2 0 1
14 9 2 7 7 11 9 9 9 6 4 11 10 9 6 2 1 4 5 6 6 7 7 6 8 7 6 5 4 3 3 2 2 5 5 7 10 9 4 7 7 8 6 5 4 3 1 0 0
16 5 4 4 6 5 9 6 9 11 9 11 14 13 8 4 3 3 5 7 7 7 8 7 7 7 7 7 6 4 4 3 3 4 5 6 12 7 7 6 7 5 5 6 6 4 3 3 2
9 4 6 5 5 7 4 9 9 19 11 16 15 14 12 8 4 5 7 5 8 9 9 9 9 8 8 9 8 7 5 5 5 6 9 11 7 12 9 7 6 5 4 5 5 5 5 4 3
8 5 4 5 6 8 7 2 11 10 15 16 16 15 14 11 6 3 5 7 8 10 11 11 10 9 10 9 9 8 8 6 6 5 7 4 4 5 5 5 3 2 3 4 5 5 6 6 5
4 2 2 2 3 7 8 12 7 8 15 15 16 17 16 13 9 7 4 8 11 12 13 13 12 11 12 10 10 8 8 7 7 3 6 7 6 1 4 1 3 5 4 2 5 6 6 6 7
9 4 3 3 3 6 10 12 15 16 14 15 18 20 19 16 11 15 8 7 13 13 13 11 13 12 12 11 9 8 6 7 8 7 4 6 4 3 4 2 3 4 3 4 5 6 8 7 7
9 4 4 3 3 4 8 0 11 12 16 16 17 20 20 18 16 15 14 10 7 14 15 13 14 12 11 9 9 8 8 7 8 9 8 7 9 6 7 5 5 5 6 7 7 8 8 10 9
3 1 4 9 11 4 8 3 8 9 13 17 17 19 18 18 19 18 17 18 10 5 15 11 12 13 9 9 10 10 11 9 9 10 9 10 11 10 11 6 7 8 8 8 10 8 9 10 11
10 11 9 5 12 6 1 10 7 8 12 14 15 16 17 18 18 18 18 18 16 3 8 12 8 2 8 7 8 11 13 14 14 12 12 11 12 12 13 10 11 10 11 11 9 10 9 9 12
15 5 7 6 13 4 2 9 8 4 9 11 7 14 15 16 16 16 17 18 19 16 8 5 7 5 1 1 8 11 13 16 16 16 17 15 14 14 16 15 15 14 14 14 13 10 11 11 11
9 11 7 9 11 3 7 7 10 1 5 9 5 14 14 15 16 14 15 17 17 15 14 12 9 4 1 3 7 8 11 17 17 18 20 22 21 19 18 19 17 17 19 19 17 15 16 14 12
15 8 8 10 17 4 6 2 11 9 5 6 8 8 3 12 14 14 13 13 14 17 11 10 11 3 1 2 1 6 9 13 12 14 18 27 26 23 21 20 19 18 20 20 22 20 19 19 18
11 10 12 10 13 2 2 8 11 12 12 9 8 9 8 12 13 13 14 13 14 15 16 11 9 6 3 2 5 8 7 7 3 9 16 20 16 23 18 19 19 20 19 22 23 23 23 24 22
9 16 21 15 3 12 4 14 5 8 13 11 11 7 9 8 10 13 11 12 14 15 17 16 13 9 8 7 9 9 8 8 9 10 13 17 6 14 16 20 16 16 17 21 22 23 25 26 26
16 17 10 11 4 5 12 3 18 6 10 9 9 4 8 8 6 7 9 11 13 15 14 15 16 12 9 9 9 9 9 10 10 11 11 8 6 5 7 11 14 17 19 20 22 24 24 26 29
19 17 11 7 4 9 20 3 15 8 2 6 6 9 9 10 10 7 6 9 10 12 14 14 13 14 13 14 12 10 9 10 12 13 15 14 13 12 13 14 14 18 21 20 19 20 22 24 27
23 14 6 9 9 6 11 7 9 7 12 4 7 11 10 12 13 12 6 5 8 9 9 11 12 13 14 14 16 17 15 13 13 13 14 13 13 12 10 12 12 12 15 16 15 17 21 23 25
22 15 14 14 14 14 17 8 13 23 18 7 8 11 14 14 17 15 10 5 6 9 11 11 8 9 11 14 15 16 17 15 12 12 12 13 13 12 10 10 12 14 13 13 13 14 15 17 19
18 17 16 18 19 8 13 13 8 20 20 14 9 12 14 11 5 9 11 8 8 11 13 14 13 12 13 12 9 12 15 15 16 13 12 11 12 12 13 12 13 16 18 18 16 13 14 14 15
24 17 19 14 12 15 9 13 14 21 21 22 9 11 7 3 1 6 8 8 9 12 13 15 15 16 17 16 16 13 12 15 16 15 13 13 12 13 15 14 14 15 16 19 20 18 18 17 14
26 18 18 17 14 13 7 17 7 10 16 20 14 10 6 2 4 6 6 8 7 9 13 16 18 20 20 20 20 18 15 14 17 18 17 14 14 13 13 15 15 15 15 17 19 21 18 18 18
17 16 16 14 12 11 14 24 7 7 11 16 10 11 11 5 4 7 8 8 11 12 14 16 19 21 24 23 24 25 18 16 17 18 20 18 17 17 18 18 18 18 17 17 18 20 22 21 20
Wind_Direction
30 37 47 38 47 35 30 43 56 73 70 71 88 106 97 92 101 179 127 117 113 101 93 90 81 68 60 58 63 62 61 66 73 77 83 93 95 97 94 108 117 121 103 97 96 93 99 102 100
36 41 23 18 51 46 38 45 44 51 51 51 64 81 125 110 103 99 101 120 109 92 83 81 80 70 65 68 66 71 64 70 83 87 83 90 92 96 107 124 137 137 119 104 83 97 100 101 92
28 38 12 46 52 50 38 39 38 36 40 43 60 61 106 139 119 87 78 96 104 88 72 69 67 70 76 81 81 87 78 80 98 108 102 94 111 118 102 124 152 164 179 134 84 82 133 115 93
26 6 47 28 52 45 44 41 49 46 41 29 47 45 62 137 166 143 87 65 97 94 66 52 52 42 96 99 103 105 109 101 104 116 121 117 124 130 125 113 125 167 165 176 174 132 150 151 132
36 53 38 34 40 41 30 27 41 55 53 56 49 69 67 140 156 167 152 148 110 104 70 34 27 36 76 93 109 122 121 119 118 117 127 134 129 123 127 117 125 134 141 159 148 147 170 166 187
58 62 55 22 41 42 29 30 44 56 62 62 58 64 124 167 179 159 142 182 202 196 165 148 335 20 68 98 106 142 139 141 138 138 132 141 137 137 130 124 117 126 138 148 152 141 140 197 214
95 83 66 49 35 57 47 53 55 47 51 60 64 67 81 146 158 163 156 172 202 221 206 197 230 276 330 166 134 151 143 230 208 185 168 148 167 164 148 163 133 136 144 153 176 176 155 176 339
87 91 73 77 20 58 63 54 65 64 48 54 46 60 70 96 177 168 158 188 202 215 225 218 218 230 254 224 208 237 258 254 261 232 193 223 203 168 149 205 180 164 161 159 144 150 134 113 58
88 87 113 131 43 356 49 41 64 75 62 48 41 31 24 32 147 216 214 198 201 212 211 231 234 233 244 252 231 219 259 251 193 189 228 228 164 178 191 191 193 188 185 182 196 204 197 273 50
91 177 157 93 80 39 25 54 24 46 45 40 31 23 7 345 292 240 245 246 233 222 218 215 221 235 240 252 253 250 255 257 262 248 255 247 235 212 183 171 171 167 195 197 205 215 233 247 240
119 167 92 78 105 102 52 18 25 357 23 34 19 13 8 9 319 277 239 229 234 234 223 217 212 219 234 234 242 248 255 260 265 270 306 334 159 160 172 163 165 164 188 209 222 219 233 262 253
77 109 106 117 109 91 85 25 353 14 14 16 16 14 9 8 359 316 250 220 220 225 223 216 217 218 228 234 237 240 246 255 266 306 325 355 129 107 158 157 208 211 239 249 245 241 241 258 266
139 224 355 249 118 95 69 47 22 9 9 16 14 15 17 19 25 10 276 234 226 219 216 213 217 220 228 229 235 237 249 259 272 294 321 337 25 89 242 298 337 286 265 291 292 266 257 266 257
211 157 288 172 215 104 77 42 42 7 15 21 13 16 16 15 16 13 2 254 231 230 233 232 228 225 236 238 242 250 256 272 280 289 323 325 314 321 326 332 340 347 325 261 280 312 257 259 259
143 114 249 270 220 159 69 128 5 8 12 13 17 17 21 19 10 11 20 7 291 238 232 236 233 230 239 256 265 263 258 259 272 283 289 289 304 313 304 287 291 301 307 312 304 287 276 257 259
233 140 232 256 262 221 93 285 319 18 15 12 15 18 19 21 19 14 12 12 352 218 261 229 238 240 229 241 264 270 276 280 276 269 265 270 273 282 292 307 302 291 286 308 329 290 275 263 272
317 239 202 276 271 230 100 335 286 27 12 7 0 18 18 18 14 20 23 20 25 270 222 249 299 241 238 218 261 266 266 267 267 263 257 257 267 274 277 273 275 283 295 299 301 314 299 280 280
213 241 260 234 255 225 313 277 281 61 9 8 351 1 17 12 9 21 30 30 33 33 51 7 359 11 107 251 261 271 275 275 272 272 270 268 266 273 277 278 276 277 276 277 286 294 289 287 290
206 202 233 264 245 175 256 217 260 270 5 344 349 339 9 9 8 13 26 36 34 34 22 15 24 24 90 225 273 287 291 285 278 277 275 274 267 260 265 268 274 273 274 277 274 279 279 278 279
239 214 237 256 268 215 270 260 270 279 302 318 328 308 318 5 6 12 19 28 24 30 30 30 31 36 177 199 54 335 310 306 272 271 284 282 263 257 262 271 268 269 273 275 273 269 271 277 271
222 208 248 218 249 316 352 263 236 286 286 292 307 330 313 344 1 15 23 28 28 29 33 36 33 45 73 311 326 327 336 2 301 286 324 327 249 247 265 269 286 278 274 273 272 271 268 265 267
204 229 239 251 237 265 119 303 75 251 287 282 302 323 323 332 354 358 14 21 31 33 39 40 37 22 10 5 359 351 343 352 359 349 341 357 327 253 276 286 285 285 291 281 278 275 268 264 258
207 250 237 240 238 286 276 108 297 292 294 305 339 323 334 317 325 335 343 2 21 26 31 34 36 30 5 354 353 355 355 357 357 359 357 345 346 329 289 294 298 298 291 283 279 283 280 270 264
219 246 247 243 231 256 261 202 239 277 280 302 357 337 310 310 268 267 329 343 3 10 17 13 20 16 14 8 359 351 348 346 349 356 355 355 349 340 336 329 321 307 299 292 283 280 279 276 273
221 217 208 223 239 251 242 262 248 295 268 255 341 348 304 293 283 257 254 314 336 354 353 4 353 357 357 357 357 357 345 340 341 344 344 348 348 343 329 317 311 316 328 303 290 281 274 271 273
220 203 210 237 238 268 206 273 243 240 260 268 336 329 313 310 297 248 240 242 293 314 319 330 329 330 337 340 345 343 346 330 324 328 333 332 336 340 339 339 337 336 326 334 324 304 292 276 276
219 221 210 247 292 281 268 275 287 279 267 268 328 333 326 323 268 211 234 252 277 295 305 309 311 305 306 304 311 324 329 333 337 328 320 311 312 321 331 341 349 351 349 349 346 343 334 295 269
212 205 218 228 249 257 269 254 258 267 283 278 286 320 318 43 236 230 250 267 292 304 310 310 308 302 297 300 302 302 310 315 319 327 321 312 317 321 322 328 336 342 348 349 349 346 339 339 305
201 201 203 222 235 232 249 232 228 239 285 295 282 267 208 323 241 259 264 288 304 311 320 313 307 298 295 293 295 291 288 298 308 307 306 309 313 318 319 321 326 335 341 345 345 344 343 342 336
201 225 213 224 250 239 237 269 188 256 273 301 290 232 228 306 278 273 280 297 308 312 312 317 311 308 317 321 290 273 278 276 283 291 296 300 301 306 307 306 311 316 321 328 331 334 336 337 331
Height
5920 5918 5917 5917 5918 5916 5913 5913 5913 5912 5910 5909 5908 5907 5907 5905 5904 5906 5903 5901 5901 5901 5901 5900 5900 5899 5899 5898 5898 5899 5898 5898 5898 5899 5898 5898 5898 5897 5897 5897 5898 5899 5900 5899 5899 5899 5899 5900 5900
5922 5920 5919 5917 5923 5920 5916 5915 5914 5913 5912 5911 5910 5909 5908 5907 5906 5906 5905 5903 5902 5902 5902 5902 5901 5901 5900 5900 5900 5900 5900 5900 5900 5901 5900 5900 5899 5900 5900 5899 5899 5900 5900 5901 5901 5901 5900 5900 5900
5925 5922 5921 5921 5923 5921 5919 5917 5916 5915 5913 5912 5911 5910 5909 5908 5907 5907 5907 5906 5903 5903 5903 5903 5903 5902 5902 5901 5901 5901 5901 5902 5902 5902 5902 5902 5902 5901 5901 5901 5900 5900 5901 5902 5902 5902 5902 5902 5902
5925 5925 5924 5927 5924 5922 5922 5920 5917 5915 5914 5913 5911 5911 5910 5909 5908 5908 5908 5908 5906 5905 5905 5905 5905 5904 5904 5904 5903 5903 5903 5903 5904 5903 5903 5904 5904 5903 5903 5902 5902 5902 5902 5902 5903 5903 5904 5903 5903
5927 5925 5933 5930 5927 5924 5923 5921 5919 5917 5915 5913 5911 5911 5910 5909 5908 5908 5908 5908 5908 5907 5907 5907 5906 5906 5906 5906 5905 5905 5906 5905 5905 5906 5906 5906 5906 5904 5903 5903 5903 5902 5903 5903 5903 5904 5904 5904 5904
5928 5932 5937 5934 5931 5926 5924 5922 5922 5919 5917 5915 5913 5911 5911 5910 5910 5908 5908 5908 5909 5908 5908 5908 5908 5907 5907 5907 5907 5908 5907 5907 5907 5907 5908 5907 5907 5906 5904 5903 5903 5903 5903 5903 5904 5904 5905 5905 5905
5931 5938 5940 5938 5933 5928 5925 5924 5922 5920 5918 5916 5914 5913 5911 5910 5910 5909 5908 5908 5909 5909 5908 5908 5908 5909 5909 5909 5909 5910 5910 5909 5909 5909 5909 5908 5907 5906 5905 5905 5904 5904 5904 5904 5904 5905 5905 5905 5905
5933 5938 5941 5939 5935 5929 5926 5925 5923 5920 5919 5918 5916 5914 5913 5911 5910 5909 5908 5908 5908 5908 5908 5909 5909 5909 5910 5910 5910 5910 5911 5910 5910 5910 5909 5908 5906 5906 5905 5904 5905 5905 5904 5904 5904 5905 5905 5905 5905
5936 5940 5942 5939 5937 5931 5927 5927 5923 5920 5918 5917 5917 5916 5914 5912 5910 5910 5909 5907 5907 5907 5908 5909 5909 5909 5910 5910 5911 5911 5911 5911 5911 5910 5909 5908 5907 5906 5905 5905 5906 5905 5905 5905 5904 5904 5905 5906 5906
5938 5942 5938 5936 5937 5936 5929 5929 5923 5927 5923 5916 5917 5915 5914 5912 5911 5909 5909 5908 5908 5908 5908 5908 5909 5910 5910 5910 5910 5911 5911 5911 5911 5910 5909 5907 5904 5906 5906 5907 5907 5906 5906 5905 5905 5905 5905 5906 5906
5937 5939 5937 5936 5933 5935 5933 5931 5926 5907 5927 5918 5918 5916 5914 5912 5911 5909 5908 5907 5908 5908 5908 5908 5908 5908 5908 5908 5909 5909 5910 5910 5910 5910 5908 5904 5902 5905 5906 5906 5907 5908 5907 5907 5906 5905 5906 5905 5905
5940 5938 5937 5936 5934 5933 5933 5932 5932 5925 5922 5919 5919 5917 5914 5911 5909 5908 5907 5906 5906 5906 5907 5907 5907 5907 5907 5907 5908 5908 5909 5909 5909 5910 5909 5906 5904 5906 5907 5907 5908 5908 5907 5907 5907 5906 5905 5905 5905
5939 5941 5940 5939 5937 5934 5933 5931 5931 5928 5924 5922 5920 5918 5914 5911 5909 5907 5906 5904 5904 5904 5904 5905 5905 5906 5906 5907 5907 5908 5909 5910 5910 5911 5910 5908 5905 5906 5905 5907 5908 5908 5908 5907 5907 5906 5905 5904 5904
5937 5938 5940 5939 5939 5937 5934 5934 5931 5930 5926 5923 5920 5917 5914 5912 5909 5907 5904 5902 5902 5902 5902 5903 5904 5905 5907 5908 5909 5909 5909 5910 5910 5910 5911 5909 5908 5907 5906 5906 5907 5908 5908 5907 5907 5906 5904 5903 5903
5937 5938 5943 5941 5939 5939 5936 5934 5933 5930 5927 5924 5921 5918 5916 5913 5911 5908 5905 5903 5902 5900 5900 5900 5902 5903 5906 5908 5910 5910 5910 5910 5910 5909 5909 5908 5907 5906 5904 5906 5905 5906 5907 5906 5906 5905 5904 5903 5901
5936 5940 5945 5941 5939 5938 5938 5931 5934 5931 5928 5924 5921 5920 5918 5915 5912 5909 5906 5903 5899 5899 5900 5902 5901 5903 5904 5906 5909 5910 5910 5909 5908 5907 5907 5906 5905 5905 5905 5904 5904 5904 5904 5904 5905 5904 5902 5901 5899
5941 5942 5945 5944 5939 5938 5939 5938 5935 5932 5929 5926 5923 5921 5919 5917 5915 5911 5908 5905 5901 5898 5901 5898 5903 5902 5902 5903 5907 5908 5907 5906 5906 5906 5905 5905 5905 5904 5904 5904 5903 5902 5901 5902 5902 5902 5901 5900 5898
5934 5946 5942 5943 5941 5938 5942 5940 5936 5933 5931 5928 5927 5922 5920 5918 5916 5913 5910 5907 5904 5900 5902 5902 5902 5899 5901 5901 5904 5905 5905 5904 5904 5904 5904 5904 5903 5903 5902 5902 5901 5901 5901 5900 5899 5898 5899 5898 5896
5936 5940 5942 5941 5937 5936 5939 5938 5938 5933 5931 5929 5928 5924 5921 5919 5917 5915 5912 5910 5908 5905 5901 5898 5899 5900 5900 5901 5903 5903 5902 5901 5901 5901 5901 5900 5900 5900 5899 5898 5899 5899 5899 5899 5898 5897 5897 5895 5895
5934 5938 5942 5938 5936 5935 5939 5938 5936 5933 5930 5929 5927 5926 5924 5921 5919 5917 5915 5912 5910 5908 5906 5904 5901 5900 5902 5903 5903 5902 5901 5898 5896 5898 5896 5894 5894 5895 5896 5897 5897 5896 5896 5896 5895 5895 5894 5894 5892
5933 5937 5934 5937 5933 5935 5935 5934 5935 5932 5931 5928 5927 5927 5925 5923 5920 5919 5916 5914 5912 5910 5908 5906 5905 5904 5904 5903 5902 5901 5899 5897 5895 5895 5893 5887 5886 5889 5892 5893 5893 5893 5892 5892 5891 5890 5890 5890 5889
5933 5931 5933 5933 5933 5934 5932 5936 5927 5932 5929 5928 5926 5926 5924 5924 5923 5920 5917 5916 5914 5912 5910 5907 5906 5905 5904 5903 5902 5900 5899 5896 5894 5893 5891 5887 5884 5885 5887 5889 5889 5889 5889 5888 5887 5886 5886 5884 5884
5931 5925 5929 5931 5932 5937 5936 5937 5931 5931 5929 5925 5925 5925 5925 5923 5923 5921 5920 5919 5917 5915 5913 5910 5908 5906 5906 5904 5902 5900 5898 5897 5896 5894 5892 5890 5888 5886 5887 5887 5886 5884 5884 5883 5882 5880 5880 5879 5877
5927 5925 5926 5930 5933 5935 5929 5935 5932 5920 5925 5925 5924 5924 5924 5923 5921 5920 5920 5919 5917 5915 5913 5912 5909 5908 5907 5905 5903 5900 5898 5896 5896 5894 5892 5889 5887 5885 5883 5882 5882 5880 5878 5877 5876 5874 5873 5874 5873
5919 5923 5928 5932 5932 5934 5929 5930 5934 5922 5924 5924 5923 5922 5920 5920 5918 5918 5918 5918 5917 5915 5913 5910 5910 5908 5906 5904 5902 5900 5897 5895 5894 5893 5892 5890 5888 5886 5884 5883 5882 5879 5876 5873 5870 5869 5867 5867 5867
5916 5922 5926 5928 5928 5928 5921 5928 5926 5923 5922 5923 5922 5920 5917 5917 5914 5914 5915 5914 5913 5913 5911 5910 5907 5906 5905 5904 5902 5900 5899 5897 5894 5892 5891 5890 5888 5886 5885 5882 5879 5876 5874 5871 5868 5865 5863 5862 5861
5918 5917 5923 5925 5922 5926 5929 5928 5924 5918 5919 5921 5920 5918 5916 5914 5911 5912 5912 5911 5910 5910 5909 5907 5906 5904 5902 5901 5900 5899 5898 5896 5894 5891 5891 5889 5888 5885 5883 5881 5878 5875 5872 5869 5866 5863 5861 5858 5857
5910 5913 5921 5924 5925 5924 5925 5924 5923 5917 5916 5917 5919 5917 5915 5914 5912 5911 5910 5909 5908 5908 5907 5905 5903 5902 5900 5899 5898 5895 5894 5893 5892 5890 5889 5888 5885 5883 5882 5880 5877 5874 5871 5867 5864 5861 5859 5857 5854
5906 5910 5915 5920 5919 5921 5922 5913 5914 5914 5914 5914 5915 5914 5913 5912 5911 5909 5908 5907 5905 5904 5904 5902 5900 5898 5897 5896 5894 5891 5889 5889 5888 5888 5887 5885 5884 5881 5879 5878 5875 5872 5870 5867 5863 5861 5858 5854 5852
5906 5911 5914 5917 5918 5918 5918 5907 5905 5910 5910 5908 5908 5908 5910 5911 5908 5907 5906 5905 5903 5901 5899 5897 5895 5893 5890 5888 5886 5884 5884 5884 5883 5883 5883 5882 5881 5879 5877 5875 5872 5869 5866 5863 5860 5858 5855 5853 5851